Regional Weather Roundup
Issued by NWS Charleston, SC

Home | Current Version | Previous Version | Text Only | Print | Product List | Glossary On
Versions: 1 2 3 4 5 6 7 8 9 10 11 12 13 14 15 16 17 18 19 20 21 22 23 24 25 26 27 28 29 30 31 32 33 34 35 36 37 38 39 40 41 42 43 44 45 46 47 48 49 50
000
ASUS42 KCHS 100625
RWRCHS

REGIONAL WEATHER ROUNDUP
NATIONAL WEATHER SERVICE CHARLESTON SC
200 AM EDT THU JUL 10 2014

NOTE: "FAIR" INDICATES FEW OR NO CLOUDS BELOW 12,000 FEET WITH NO
SIGNIFICANT WEATHER AND/OR OBSTRUCTIONS TO VISIBILITY.

NOT ALL STATIONS ARE QUALITY CONTROLLED BY THE NATIONAL
WEATHER SERVICE. USE DATA WITH CAUTION...ESPECIALLY
DEWPOINT OBSERVATIONS.

SCZ027-030-031-034>040-042>050-100700-
...SOUTH CAROLINA...

CITY           SKY/WX    TMP DP  RH WIND       PRES   REMARKS
N CHARLESTON   PTCLDY    82  75  79 SW8       30.04S
6HR MIN TEMP:  79; 6HR MAX TEMP:  84;

WATERFRONT PRK   N/A     82 N/A N/A S13         N/A
FORT JOHNSON   NOT AVBL
MOUNT PLEASANT FAIR      81  77  89 SW7       30.04S
JOHNS ISLAND   PTCLDY    82  73  74 SW7       30.04S
PINOPOLIS        N/A     81  73  78 CALM      29.97S
MONCKS CORNER    N/A     77  75  94 CALM      30.03S
SUMMERVILLE    MOCLDY    77  73  88 CALM      30.04F
BEAUFORT MCAS  CLEAR     81  76  84 W7        30.03F
6HR MIN TEMP:  81; 6HR MAX TEMP:  85;

BEAUFORT ARPT  NOT AVBL
HILTON HEAD IS CLEAR     81  75  83 SW7       30.05S
GEORGETOWN     NOT AVBL
WALTERBORO     CLEAR     77 N/A N/A CALM      30.04S
ORANGEBURG     PTCLDY    76  71  85 NW5       30.04F
6HR MIN TEMP:  74; 6HR MAX TEMP:  87; 6HR PCP:  0.03;

BARNWELL       FAIR      73  70  88 CALM      30.05S
AIKEN          FAIR      73  73 100 CALM      30.08F
MANNING        FAIR      81  77  89 CALM      30.03F
KINGSTREE      NOT AVBL
COLUMBIA       CLOUDY    77  71  82 W3        30.03S
6HR MIN TEMP:  77; 6HR MAX TEMP:  80; 6HR PCP: TRACE;

SUMTER         CLOUDY    77  71  81 S7        30.02S
6HR MIN TEMP:  77; 6HR MAX TEMP:  85; 6HR PCP: TRACE;

FLORENCE       CLOUDY    80  72  76 S5        30.03S
6HR MIN TEMP:  80; 6HR MAX TEMP:  89; 6HR PCP:  0.02;

MYRTLE BEACH   CLOUDY    81  73  78 S8        30.05F
N MYRTLE BEACH MOCLDY    81  75  82 SW10      30.04F
6HR MIN TEMP:  81; 6HR MAX TEMP:  83;


$$

GAZ063-065-086>088-099>101-113>116-118-119-134-136>141-150-100700-
...GEORGIA...

CITY           SKY/WX    TMP DP  RH WIND       PRES   REMARKS
SAVANNAH ARPT  CLEAR     78  72  81 SW7       30.05F
6HR MIN TEMP:  78; 6HR MAX TEMP:  82;

HUNTER AAF     CLEAR     78  73  84 SW5       30.03F
6HR MIN TEMP:  78; 6HR MAX TEMP:  84;

FORT STEWART   CLEAR     76  68  75 SW6       30.05F
6HR MIN TEMP:  76; 6HR MAX TEMP:  81;

STATESBORO     NOT AVBL
SYLVANIA       CLEAR     75  72  91 CALM      30.04F
CLAXTON        FAIR      77  70  78 CALM      30.05S
THOMSON        CLOUDY    73  73 100 CALM      30.07F
AUGUSTA-BUSH   MOCLDY    74  69  85 CALM      30.03F
6HR MIN TEMP:  73; 6HR MAX TEMP:  77; 6HR PCP:  0.02;

AUGUSTA-DANIEL MOCLDY    76  70  82 S3        30.05F
SWAINSBORO     FAIR      73  73 100 CALM      30.05S
VIDALIA          N/A     73  70  88 SW5       30.05F
ALMA           PTCLDY    71  68  90 CALM      30.06
6HR MIN TEMP:  71; 6HR MAX TEMP:  88;

WAYCROSS       PTCLDY    76  73  92 CALM      30.06F
JESUP          NOT AVBL
BRUNSWICK      CLEAR     75  70  83 CALM      30.07F
SAINT SIMONS   CLEAR     78  70  76 W7        30.06F
6HR MIN TEMP:  78; 6HR MAX TEMP:  84;


$$

SCZ027-028-034-036>038-045-046-048>050-GAZ119-141-100700-
...LAKE AND SUPPLEMENTAL COASTAL OBSERVATIONS...

STATION/POSITION TIME  TEMP    WIND        PRES    WAVE   SWELL
                       AIR SEA DIR/SP/G            HT/PER HT/PER/DIR
                 (UTC) (F)     (DEG/KT/KT) (MB)    (FT/S) (FT/S/D)
UPR LAKE MARION  NOT AVBL
WINYAH BAY       0600   80     220/  7     1017.0S
LAKE MURRAY      0500   78     230/  6/  8 1016.6S
ACE BASIN NERRS  0600   81        CALM     1017.0S
FORT PULASKI     0600   80 78  240/  6/  8   N/A
SAPELO ISLAND    0600   79     260/  7     1018.0S

$$

ANZ835-935-AMZ111-154-330-350-352-354-374-450-454-472-100700-
...C-MAN AND BUOY OBSERVATIONS...

STATION/POSITION TIME  TEMP    WIND        PRES    WAVE   SWELL
                       AIR SEA DIR/SP/G            HT/PER HT/PER/DIR
                 (UTC) (F)     (DEG/KT/KT) (MB)    (FT/S) (FT/S/D)
FOLLY BEACH CMAN 0600   82     220/ 17/ 19 1017.6F
BUOY 41004       0600   82 81  200/ 16/ 17 1017.0F   5/ 5   2/ 9
BUOY 41008       0600   83 84  270/ 16/ 17 1017.7F   4/ 5   2/100/ 8
5E ST. MARYS GA  0600      83                N/A     3/ 9
FRYING PAN BUOY  NOT AVBL
BUOY 41025       0600          VRB 17/ 19  1018.2R   6/ 6   2/110/ 9
CAPE LOOKOUT NC  0600   81     200/ 12/ 15 1018.1F
BUOY 41002       0515   81 81  210/ 17/ 19 1021.1F   4/10   2/100/10
BUOY 41010       0600   81 83  180/ 14/ 16 1019.7S   3/ 9   2/120/ 9
BUOY 41012       NOT AVBL
ST AUGUSTINE FL  0600   76     200/  5/  6 1019.2S
CAPERS NEARSHORE 0500   82     220/ 16/ 19   N/A
FRIPP NEARSHORE  0500   83     220/ 17/ 19   N/A


$$


USA.gov is the U.S. government's official web portal to all federal, state and local government web resources and services.